Year,Month,Day,Hour,Minute,Value (Times are PST for temperature in C)
2012,10,15,00,00,11.20
2012,10,15,00,01,11.20
2012,10,15,00,02,11.20
2012,10,15,00,03,11.20
2012,10,15,00,04,11.20
2012,10,15,00,05,11.10
2012,10,15,00,06,11.10
2012,10,15,00,07,11.10
2012,10,15,00,08,11.00
2012,10,15,00,09,10.90
2012,10,15,00,10,10.90
2012,10,15,00,11,10.90
2012,10,15,00,12,10.90
2012,10,15,00,13,10.90
2012,10,15,00,14,10.90
2012,10,15,00,15,10.80
2012,10,15,00,16,10.90
2012,10,15,00,17,10.90
2012,10,15,00,18,10.90
2012,10,15,00,19,10.90
2012,10,15,00,20,10.90
2012,10,15,00,21,10.80
2012,10,15,00,22,10.80
2012,10,15,00,23,10.80
2012,10,15,00,24,10.80
2012,10,15,00,25,10.80
2012,10,15,00,26,10.80
2012,10,15,00,27,10.90
2012,10,15,00,28,10.90
2012,10,15,00,29,10.90
2012,10,15,00,30,10.90
2012,10,15,00,31,10.90
2012,10,15,00,32,10.90
2012,10,15,00,33,10.90
2012,10,15,00,34,10.90
2012,10,15,00,35,10.90
2012,10,15,00,36,10.90
2012,10,15,00,37,10.80
2012,10,15,00,38,10.80
2012,10,15,00,39,10.80
2012,10,15,00,40,10.80
2012,10,15,00,41,10.90
2012,10,15,00,42,10.90
2012,10,15,00,43,10.90
2012,10,15,00,44,10.80
2012,10,15,00,45,10.80
2012,10,15,00,46,10.80
2012,10,15,00,47,10.80
2012,10,15,00,48,10.70
2012,10,15,00,49,10.70
2012,10,15,00,50,10.70
2012,10,15,00,51,10.70
2012,10,15,00,52,10.70
2012,10,15,00,53,10.70
2012,10,15,00,54,10.70
2012,10,15,00,55,10.70
2012,10,15,00,56,10.60
2012,10,15,00,57,10.60
2012,10,15,00,58,10.60
2012,10,15,00,59,10.60
2012,10,15,01,00,10.60
2012,10,15,01,01,10.60
2012,10,15,01,02,10.60
2012,10,15,01,03,10.60
2012,10,15,01,04,10.60
2012,10,15,01,05,10.60
2012,10,15,01,06,10.60
2012,10,15,01,07,10.60
2012,10,15,01,08,10.60
2012,10,15,01,09,10.60
2012,10,15,01,10,10.60
2012,10,15,01,11,10.60
2012,10,15,01,12,10.60
2012,10,15,01,13,10.60
2012,10,15,01,14,10.60
2012,10,15,01,15,10.60
2012,10,15,01,16,10.60
2012,10,15,01,17,10.60
2012,10,15,01,18,10.60
2012,10,15,01,19,10.60
2012,10,15,01,20,10.70
2012,10,15,01,21,10.70
2012,10,15,01,22,10.80
2012,10,15,01,23,10.80
2012,10,15,01,24,10.90
2012,10,15,01,25,10.90
2012,10,15,01,26,10.90
2012,10,15,01,27,11.00
2012,10,15,01,28,11.10
2012,10,15,01,29,11.10
2012,10,15,01,30,11.20
2012,10,15,01,31,11.20
2012,10,15,01,32,11.20
2012,10,15,01,33,11.30
2012,10,15,01,34,11.30
2012,10,15,01,35,11.40
2012,10,15,01,36,11.40
2012,10,15,01,37,11.40
2012,10,15,01,38,11.40
2012,10,15,01,39,11.40
2012,10,15,01,40,11.40
2012,10,15,01,41,11.40
2012,10,15,01,42,11.40
2012,10,15,01,43,11.40
2012,10,15,01,44,11.40
2012,10,15,01,45,11.40
2012,10,15,01,46,11.40
2012,10,15,01,47,11.40
2012,10,15,01,48,11.40
2012,10,15,01,49,11.40
2012,10,15,01,50,11.30
2012,10,15,01,51,11.30
2012,10,15,01,52,11.30
2012,10,15,01,53,11.30
2012,10,15,01,54,11.30
2012,10,15,01,55,11.30
2012,10,15,01,56,11.30
2012,10,15,01,57,11.30
2012,10,15,01,58,11.30
2012,10,15,01,59,11.30
2012,10,15,02,00,11.30
2012,10,15,02,01,11.30
2012,10,15,02,02,11.30
2012,10,15,02,03,11.30
2012,10,15,02,04,11.30
2012,10,15,02,05,11.30
2012,10,15,02,06,11.20
2012,10,15,02,07,11.20
2012,10,15,02,08,11.20
2012,10,15,02,09,11.20
2012,10,15,02,10,11.20
2012,10,15,02,11,11.30
2012,10,15,02,12,11.30
2012,10,15,02,13,11.30
2012,10,15,02,14,11.30
2012,10,15,02,15,11.30
2012,10,15,02,16,11.30
2012,10,15,02,17,11.40
2012,10,15,02,18,11.40
2012,10,15,02,19,11.40
2012,10,15,02,20,11.40
2012,10,15,02,21,11.40
2012,10,15,02,22,11.40
2012,10,15,02,23,11.50
2012,10,15,02,24,11.60
2012,10,15,02,25,11.60
2012,10,15,02,26,11.60
2012,10,15,02,27,11.60
2012,10,15,02,28,11.60
2012,10,15,02,29,11.60
2012,10,15,02,30,11.60
2012,10,15,02,31,11.60
2012,10,15,02,32,11.60
2012,10,15,02,33,11.40
2012,10,15,02,34,11.40
2012,10,15,02,35,11.40
2012,10,15,02,36,11.40
2012,10,15,02,37,11.40
2012,10,15,02,38,11.40
2012,10,15,02,39,11.40
2012,10,15,02,40,11.40
2012,10,15,02,41,11.40
2012,10,15,02,42,11.40
2012,10,15,02,43,11.40
2012,10,15,02,44,11.40
2012,10,15,02,45,11.40
2012,10,15,02,46,11.40
2012,10,15,02,47,11.50
2012,10,15,02,48,11.60
2012,10,15,02,49,11.60
2012,10,15,02,50,11.50
2012,10,15,02,51,11.40
2012,10,15,02,52,11.40
2012,10,15,02,53,11.40
2012,10,15,02,54,11.40
2012,10,15,02,55,11.40
2012,10,15,02,56,11.30
2012,10,15,02,57,11.30
2012,10,15,02,58,11.30
2012,10,15,02,59,11.30
2012,10,15,03,00,11.20
2012,10,15,03,01,11.20
2012,10,15,03,02,11.20
2012,10,15,03,03,11.20
2012,10,15,03,04,11.10
2012,10,15,03,05,11.10
2012,10,15,03,06,11.10
2012,10,15,03,07,11.10
2012,10,15,03,08,11.10
2012,10,15,03,09,11.10
2012,10,15,03,10,10.90
2012,10,15,03,11,10.90
2012,10,15,03,12,10.90
2012,10,15,03,13,10.90
2012,10,15,03,14,10.90
2012,10,15,03,15,10.90
2012,10,15,03,16,10.80
2012,10,15,03,17,10.80
2012,10,15,03,18,10.70
2012,10,15,03,19,10.70
2012,10,15,03,20,10.70
2012,10,15,03,21,10.60
2012,10,15,03,22,10.60
2012,10,15,03,23,10.60
2012,10,15,03,24,10.60
2012,10,15,03,25,10.60
2012,10,15,03,26,10.40
2012,10,15,03,27,10.40
2012,10,15,03,28,10.30
2012,10,15,03,29,10.30
2012,10,15,03,30,10.30
2012,10,15,03,31,10.30
2012,10,15,03,32,10.20
2012,10,15,03,33,10.20
2012,10,15,03,34,10.20
2012,10,15,03,35,10.20
2012,10,15,03,36,10.10
2012,10,15,03,37,10.10
2012,10,15,03,38,10.10
2012,10,15,03,39,10.00
2012,10,15,03,40,9.90
2012,10,15,03,41,9.90
2012,10,15,03,42,9.90
2012,10,15,03,43,9.80
2012,10,15,03,44,9.80
2012,10,15,03,45,9.70
2012,10,15,03,46,9.70
2012,10,15,03,47,9.70
2012,10,15,03,48,9.70
2012,10,15,03,49,9.70
2012,10,15,03,50,9.70
2012,10,15,03,51,9.80
2012,10,15,03,52,9.80
2012,10,15,03,53,9.80
2012,10,15,03,54,9.80
2012,10,15,03,55,9.80
2012,10,15,03,56,9.90
2012,10,15,03,57,9.90
2012,10,15,03,58,9.90
2012,10,15,03,59,9.80
2012,10,15,04,00,9.80
2012,10,15,04,01,9.80
2012,10,15,04,02,9.80
2012,10,15,04,03,9.80
2012,10,15,04,04,9.80
2012,10,15,04,05,9.80
2012,10,15,04,06,9.70
2012,10,15,04,07,9.70
2012,10,15,04,08,9.70
2012,10,15,04,09,9.70
2012,10,15,04,10,9.80
2012,10,15,04,11,9.80
2012,10,15,04,12,9.80
2012,10,15,04,13,9.90
2012,10,15,04,14,9.90
2012,10,15,04,15,9.90
2012,10,15,04,16,9.90
2012,10,15,04,17,10.00
2012,10,15,04,18,10.10
2012,10,15,04,19,10.10
2012,10,15,04,20,10.10
2012,10,15,04,21,10.20
2012,10,15,04,22,10.20
2012,10,15,04,23,10.20
2012,10,15,04,24,10.20
2012,10,15,04,25,10.30
2012,10,15,04,26,10.30
2012,10,15,04,27,10.30
2012,10,15,04,28,10.40
2012,10,15,04,29,10.40
2012,10,15,04,30,10.40
2012,10,15,04,31,10.40
2012,10,15,04,32,10.40
2012,10,15,04,33,10.40
2012,10,15,04,34,10.40
2012,10,15,04,35,10.40
2012,10,15,04,36,10.40
2012,10,15,04,37,10.40
2012,10,15,04,38,10.40
2012,10,15,04,39,10.40
2012,10,15,04,40,10.40
2012,10,15,04,41,10.50
2012,10,15,04,42,10.60
2012,10,15,04,43,10.60
2012,10,15,04,44,10.60
2012,10,15,04,45,10.60
2012,10,15,04,46,10.60
2012,10,15,04,47,10.60
2012,10,15,04,48,10.60
2012,10,15,04,49,10.60
2012,10,15,04,50,10.60
2012,10,15,04,51,10.60
2012,10,15,04,52,10.60
2012,10,15,04,53,10.60
2012,10,15,04,54,10.60
2012,10,15,04,55,10.60
2012,10,15,04,56,10.60
2012,10,15,04,57,10.60
2012,10,15,04,58,10.60
2012,10,15,04,59,10.60
2012,10,15,05,00,10.60
2012,10,15,05,01,10.60
2012,10,15,05,02,10.60
2012,10,15,05,03,10.60
2012,10,15,05,04,10.60
2012,10,15,05,05,10.60
2012,10,15,05,06,10.60
2012,10,15,05,07,10.60
2012,10,15,05,08,10.50
2012,10,15,05,09,10.40
2012,10,15,05,10,10.40
2012,10,15,05,11,10.40
2012,10,15,05,12,10.30
2012,10,15,05,13,10.30
2012,10,15,05,14,10.20
2012,10,15,05,15,10.20
2012,10,15,05,16,10.20
2012,10,15,05,17,10.10
2012,10,15,05,18,10.10
2012,10,15,05,19,10.10
2012,10,15,05,20,10.10
2012,10,15,05,21,10.00
2012,10,15,05,22,9.90
2012,10,15,05,23,9.90
2012,10,15,05,24,9.90
2012,10,15,05,25,9.90
2012,10,15,05,26,9.90
2012,10,15,05,27,9.90
2012,10,15,05,28,9.90
2012,10,15,05,29,9.90
2012,10,15,05,30,9.80
2012,10,15,05,31,9.80
2012,10,15,05,32,9.80
2012,10,15,05,33,9.80
2012,10,15,05,34,9.70
2012,10,15,05,35,9.70
2012,10,15,05,36,9.70
2012,10,15,05,37,9.70
2012,10,15,05,38,9.70
2012,10,15,05,39,9.70
2012,10,15,05,40,9.70
2012,10,15,05,41,9.80
2012,10,15,05,42,9.80
2012,10,15,05,43,9.80
2012,10,15,05,44,9.80
2012,10,15,05,45,9.90
2012,10,15,05,46,9.80
2012,10,15,05,47,9.80
2012,10,15,05,48,9.80
2012,10,15,05,49,9.70
2012,10,15,05,50,9.60
2012,10,15,05,51,9.60
2012,10,15,05,52,9.50
2012,10,15,05,53,9.40
2012,10,15,05,54,9.40
2012,10,15,05,55,9.40
2012,10,15,05,56,9.30
2012,10,15,05,57,9.30
2012,10,15,05,58,9.20
2012,10,15,05,59,9.20
2012,10,15,06,00,9.20
2012,10,15,06,01,9.10
2012,10,15,06,02,9.00
2012,10,15,06,03,9.00
2012,10,15,06,04,8.90
2012,10,15,06,05,8.80
2012,10,15,06,06,8.70
2012,10,15,06,07,8.70
2012,10,15,06,08,8.70
2012,10,15,06,09,8.60
2012,10,15,06,10,8.60
2012,10,15,06,11,8.50
2012,10,15,06,12,8.50
2012,10,15,06,13,8.40
2012,10,15,06,14,8.40
2012,10,15,06,15,8.40
2012,10,15,06,16,8.40
2012,10,15,06,17,8.40
2012,10,15,06,18,8.50
2012,10,15,06,19,8.50
2012,10,15,06,20,8.50
2012,10,15,06,21,8.50
2012,10,15,06,22,8.50
2012,10,15,06,23,8.40
2012,10,15,06,24,8.40
2012,10,15,06,25,8.30
2012,10,15,06,26,8.30
2012,10,15,06,27,8.30
2012,10,15,06,28,8.20
2012,10,15,06,29,8.20
2012,10,15,06,30,8.20
2012,10,15,06,31,8.20
2012,10,15,06,32,8.20
2012,10,15,06,33,8.20
2012,10,15,06,34,8.20
2012,10,15,06,35,8.10
2012,10,15,06,36,8.10
2012,10,15,06,37,8.10
2012,10,15,06,38,8.00
2012,10,15,06,39,8.00
2012,10,15,06,40,8.00
2012,10,15,06,41,7.90
2012,10,15,06,42,7.90
2012,10,15,06,43,7.90
2012,10,15,06,44,7.90
2012,10,15,06,45,8.00
2012,10,15,06,46,8.00
2012,10,15,06,47,7.90
2012,10,15,06,48,7.90
2012,10,15,06,49,7.90
2012,10,15,06,50,7.80
2012,10,15,06,51,7.80
2012,10,15,06,52,7.80
2012,10,15,06,53,7.80
2012,10,15,06,54,7.80
2012,10,15,06,55,7.80
2012,10,15,06,56,7.80
2012,10,15,06,57,7.70
2012,10,15,06,58,7.70
2012,10,15,06,59,7.70
2012,10,15,07,00,7.70
2012,10,15,07,01,7.70
2012,10,15,07,02,7.70
2012,10,15,07,03,7.70
2012,10,15,07,04,7.70
2012,10,15,07,05,7.70
2012,10,15,07,06,7.70
2012,10,15,07,07,7.60
2012,10,15,07,08,7.60
2012,10,15,07,09,7.60
2012,10,15,07,10,7.60
2012,10,15,07,11,7.50
2012,10,15,07,12,7.50
2012,10,15,07,13,7.50
2012,10,15,07,14,7.50
2012,10,15,07,15,7.50
2012,10,15,07,16,7.50
2012,10,15,07,17,7.50
2012,10,15,07,18,7.50
2012,10,15,07,19,7.50
2012,10,15,07,20,7.50
2012,10,15,07,21,7.40
2012,10,15,07,22,7.30
2012,10,15,07,23,7.30
2012,10,15,07,24,7.30
2012,10,15,07,25,7.30
2012,10,15,07,26,7.30
2012,10,15,07,27,7.30
2012,10,15,07,28,7.30
2012,10,15,07,29,7.30
2012,10,15,07,30,7.30
2012,10,15,07,31,7.30
2012,10,15,07,32,7.30
2012,10,15,07,33,7.30
2012,10,15,07,34,7.30
2012,10,15,07,35,7.30
2012,10,15,07,36,7.30
2012,10,15,07,37,7.20
2012,10,15,07,38,7.20
2012,10,15,07,39,7.20
2012,10,15,07,40,7.20
2012,10,15,07,41,7.20
2012,10,15,07,42,7.20
2012,10,15,07,43,7.20
2012,10,15,07,44,7.20
2012,10,15,07,45,7.20
2012,10,15,07,46,7.20
2012,10,15,07,47,7.20
2012,10,15,07,48,7.20
2012,10,15,07,49,7.20
2012,10,15,07,50,7.30
2012,10,15,07,51,7.30
2012,10,15,07,52,7.30
2012,10,15,07,53,7.30
2012,10,15,07,54,7.30
2012,10,15,07,55,7.30
2012,10,15,07,56,7.30
2012,10,15,07,57,7.30
2012,10,15,07,58,7.40
2012,10,15,07,59,7.40
2012,10,15,08,00,7.40
2012,10,15,08,01,7.40
2012,10,15,08,02,7.40
2012,10,15,08,03,7.50
2012,10,15,08,04,7.50
2012,10,15,08,05,7.50
2012,10,15,08,06,7.50
2012,10,15,08,07,7.50
2012,10,15,08,08,7.50
2012,10,15,08,09,7.50
2012,10,15,08,10,7.50
2012,10,15,08,11,7.50
2012,10,15,08,12,7.60
2012,10,15,08,13,7.60
2012,10,15,08,14,7.60
2012,10,15,08,15,7.70
2012,10,15,08,16,7.70
2012,10,15,08,17,7.60
2012,10,15,08,18,7.60
2012,10,15,08,19,7.60
2012,10,15,08,20,7.60
2012,10,15,08,21,7.60
2012,10,15,08,22,7.60
2012,10,15,08,23,7.70
2012,10,15,08,24,7.70
2012,10,15,08,25,7.70
2012,10,15,08,26,7.70
2012,10,15,08,27,7.80
2012,10,15,08,28,7.80
2012,10,15,08,29,7.80
2012,10,15,08,30,7.90
2012,10,15,08,31,8.00
2012,10,15,08,32,8.00
2012,10,15,08,33,8.00
2012,10,15,08,34,8.00
2012,10,15,08,35,8.00
2012,10,15,08,36,8.00
2012,10,15,08,37,8.00
2012,10,15,08,38,8.00
2012,10,15,08,39,8.10
2012,10,15,08,40,8.10
2012,10,15,08,41,8.20
2012,10,15,08,42,8.20
2012,10,15,08,43,8.20
2012,10,15,08,44,8.30
2012,10,15,08,45,8.30
2012,10,15,08,46,8.40
2012,10,15,08,47,8.50
2012,10,15,08,48,8.50
2012,10,15,08,49,8.60
2012,10,15,08,50,8.70
2012,10,15,08,51,8.70
2012,10,15,08,52,8.80
2012,10,15,08,53,8.90
2012,10,15,08,54,8.90
2012,10,15,08,55,9.00
2012,10,15,08,56,9.10
2012,10,15,08,57,9.20
2012,10,15,08,58,9.20
2012,10,15,08,59,9.20
2012,10,15,09,00,9.30
2012,10,15,09,01,9.30
2012,10,15,09,02,9.30
2012,10,15,09,03,9.40
2012,10,15,09,04,9.40
2012,10,15,09,05,9.40
2012,10,15,09,06,9.50
2012,10,15,09,07,9.50
2012,10,15,09,08,9.60
2012,10,15,09,09,9.70
2012,10,15,09,10,9.70
2012,10,15,09,11,9.80
2012,10,15,09,12,9.90
2012,10,15,09,13,9.90
2012,10,15,09,14,10.10
2012,10,15,09,15,10.10
2012,10,15,09,16,10.10
2012,10,15,09,17,10.10
2012,10,15,09,18,10.20
2012,10,15,09,19,10.20
2012,10,15,09,20,10.30
2012,10,15,09,21,10.30
2012,10,15,09,22,10.40
2012,10,15,09,23,10.40
2012,10,15,09,24,10.40
2012,10,15,09,25,10.40
2012,10,15,09,26,10.40
2012,10,15,09,27,10.40
2012,10,15,09,28,10.40
2012,10,15,09,29,10.40
2012,10,15,09,30,10.40
2012,10,15,09,31,10.40
2012,10,15,09,32,10.40
2012,10,15,09,33,10.50
2012,10,15,09,34,10.60
2012,10,15,09,35,10.60
2012,10,15,09,36,10.60
2012,10,15,09,37,10.60
2012,10,15,09,38,10.60
2012,10,15,09,39,10.60
2012,10,15,09,40,10.60
2012,10,15,09,41,10.60
2012,10,15,09,42,10.60
2012,10,15,09,43,10.60
2012,10,15,09,44,10.60
2012,10,15,09,45,10.60
2012,10,15,09,46,10.60
2012,10,15,09,47,10.60
2012,10,15,09,48,10.70
2012,10,15,09,49,10.80
2012,10,15,09,50,10.80
2012,10,15,09,51,10.90
2012,10,15,09,52,10.90
2012,10,15,09,53,10.90
2012,10,15,09,54,10.90
2012,10,15,09,55,10.90
2012,10,15,09,56,10.90
2012,10,15,09,57,10.90
2012,10,15,09,58,10.90
2012,10,15,09,59,10.90
2012,10,15,10,00,10.90
2012,10,15,10,01,10.90
2012,10,15,10,02,10.90
2012,10,15,10,03,10.90
2012,10,15,10,04,10.90
2012,10,15,10,05,10.90
2012,10,15,10,06,10.90
2012,10,15,10,07,10.90
2012,10,15,10,08,10.90
2012,10,15,10,09,10.90
2012,10,15,10,10,11.00
2012,10,15,10,11,11.10
2012,10,15,10,12,11.10
2012,10,15,10,13,11.20
2012,10,15,10,14,11.30
2012,10,15,10,15,11.30
2012,10,15,10,16,11.40
2012,10,15,10,17,11.40
2012,10,15,10,18,11.40
2012,10,15,10,19,11.40
2012,10,15,10,20,11.40
2012,10,15,10,21,11.60
2012,10,15,10,22,11.60
2012,10,15,10,23,11.60
2012,10,15,10,24,11.60
2012,10,15,10,25,11.60
2012,10,15,10,26,11.60
2012,10,15,10,27,11.60
2012,10,15,10,28,11.40
2012,10,15,10,29,11.40
2012,10,15,10,30,11.50
2012,10,15,10,31,11.60
2012,10,15,10,32,11.60
2012,10,15,10,33,11.60
2012,10,15,10,34,11.60
2012,10,15,10,35,11.60
2012,10,15,10,36,11.50
2012,10,15,10,37,11.40
2012,10,15,10,38,11.30
2012,10,15,10,39,11.30
2012,10,15,10,40,11.30
2012,10,15,10,41,11.30
2012,10,15,10,42,11.30
2012,10,15,10,43,11.30
2012,10,15,10,44,11.40
2012,10,15,10,45,11.30
2012,10,15,10,46,11.40
2012,10,15,10,47,11.40
2012,10,15,10,48,11.40
2012,10,15,10,49,11.40
2012,10,15,10,50,11.40
2012,10,15,10,51,11.40
2012,10,15,10,52,11.40
2012,10,15,10,53,11.40
2012,10,15,10,54,11.40
2012,10,15,10,55,11.40
2012,10,15,10,56,11.60
2012,10,15,10,57,11.60
2012,10,15,10,58,11.70
2012,10,15,10,59,11.70
2012,10,15,11,00,11.80
2012,10,15,11,01,11.90
2012,10,15,11,02,12.00
2012,10,15,11,03,12.00
2012,10,15,11,04,12.10
2012,10,15,11,05,12.20
2012,10,15,11,06,12.20
2012,10,15,11,07,12.30
2012,10,15,11,08,12.30
2012,10,15,11,09,12.40
2012,10,15,11,10,12.50
2012,10,15,11,11,12.50
2012,10,15,11,12,12.60
2012,10,15,11,13,12.70
2012,10,15,11,14,12.70
2012,10,15,11,15,12.70
2012,10,15,11,16,12.80
2012,10,15,11,17,12.80
2012,10,15,11,18,12.80
2012,10,15,11,19,12.80
2012,10,15,11,20,12.80
2012,10,15,11,21,12.80
2012,10,15,11,22,12.80
2012,10,15,11,23,12.80
2012,10,15,11,24,12.80
2012,10,15,11,25,12.80
2012,10,15,11,26,12.80
2012,10,15,11,27,12.80
2012,10,15,11,28,12.80
2012,10,15,11,29,12.80
2012,10,15,11,30,12.70
2012,10,15,11,31,12.70
2012,10,15,11,32,12.60
2012,10,15,11,33,12.50
2012,10,15,11,34,12.50
2012,10,15,11,35,12.40
2012,10,15,11,36,12.30
2012,10,15,11,37,12.30
2012,10,15,11,38,12.30
2012,10,15,11,39,12.30
2012,10,15,11,40,12.20
2012,10,15,11,41,12.10
2012,10,15,11,42,12.10
2012,10,15,11,43,12.10
2012,10,15,11,44,12.00
2012,10,15,11,45,12.00
2012,10,15,11,46,12.00
2012,10,15,11,47,11.90
2012,10,15,11,48,11.90
2012,10,15,11,49,11.90
2012,10,15,11,50,11.80
2012,10,15,11,51,11.80
2012,10,15,11,52,11.80
2012,10,15,11,53,11.80
2012,10,15,11,54,11.80
2012,10,15,11,55,11.90
2012,10,15,11,56,11.90
2012,10,15,11,57,11.80
2012,10,15,11,58,11.90
2012,10,15,11,59,11.90
2012,10,15,12,00,11.90
2012,10,15,12,01,11.90
2012,10,15,12,02,11.90
2012,10,15,12,03,11.90
2012,10,15,12,04,11.90
2012,10,15,12,05,11.90
2012,10,15,12,06,11.90
2012,10,15,12,07,11.90
2012,10,15,12,08,11.90
2012,10,15,12,09,11.90
2012,10,15,12,10,11.80
2012,10,15,12,11,11.80
2012,10,15,12,12,11.90
2012,10,15,12,13,11.90
2012,10,15,12,14,11.90
2012,10,15,12,15,12.00
2012,10,15,12,16,12.00
2012,10,15,12,17,12.00
2012,10,15,12,18,12.00
2012,10,15,12,19,12.00
2012,10,15,12,20,12.00
2012,10,15,12,21,12.00
2012,10,15,12,22,12.10
2012,10,15,12,23,12.10
2012,10,15,12,24,12.10
2012,10,15,12,25,12.10
2012,10,15,12,26,12.10
2012,10,15,12,27,12.10
2012,10,15,12,28,12.10
2012,10,15,12,29,12.20
2012,10,15,12,30,12.20
2012,10,15,12,31,12.20
2012,10,15,12,32,12.20
2012,10,15,12,33,12.20
2012,10,15,12,34,12.20
2012,10,15,12,35,12.20
2012,10,15,12,36,12.20
2012,10,15,12,37,12.20
2012,10,15,12,38,12.20
2012,10,15,12,39,12.20
2012,10,15,12,40,12.20
2012,10,15,12,41,12.20
2012,10,15,12,42,12.20
2012,10,15,12,43,12.20
2012,10,15,12,44,12.20
2012,10,15,12,45,12.20
2012,10,15,12,46,12.20
2012,10,15,12,47,12.20
2012,10,15,12,48,12.20
2012,10,15,12,49,12.20
2012,10,15,12,50,12.30
2012,10,15,12,51,12.30
2012,10,15,12,52,12.30
2012,10,15,12,53,12.30
2012,10,15,12,54,12.30
2012,10,15,12,55,12.30
2012,10,15,12,56,12.30
2012,10,15,12,57,12.30
2012,10,15,12,58,12.30
2012,10,15,12,59,12.30
2012,10,15,13,00,12.30
2012,10,15,13,01,12.30
2012,10,15,13,02,12.30
2012,10,15,13,03,12.30
2012,10,15,13,04,12.30
2012,10,15,13,05,12.30
2012,10,15,13,06,12.30
2012,10,15,13,07,12.30
2012,10,15,13,08,12.30
2012,10,15,13,09,12.30
2012,10,15,13,10,12.30
2012,10,15,13,11,12.30
2012,10,15,13,12,12.30
2012,10,15,13,13,12.30
2012,10,15,13,14,12.30
2012,10,15,13,15,12.30
2012,10,15,13,16,12.30
2012,10,15,13,17,12.30
2012,10,15,13,18,12.30
2012,10,15,13,19,12.30
2012,10,15,13,20,12.40
2012,10,15,13,21,12.40
2012,10,15,13,22,12.40
2012,10,15,13,23,12.40
2012,10,15,13,24,12.40
2012,10,15,13,25,12.40
2012,10,15,13,26,12.40
2012,10,15,13,27,12.30
2012,10,15,13,28,12.30
2012,10,15,13,29,12.30
2012,10,15,13,30,12.30
2012,10,15,13,31,12.30
2012,10,15,13,32,12.30
2012,10,15,13,33,12.30
2012,10,15,13,34,12.20
2012,10,15,13,35,12.20
2012,10,15,13,36,12.20
2012,10,15,13,37,12.10
2012,10,15,13,38,12.10
2012,10,15,13,39,12.10
2012,10,15,13,40,12.00
2012,10,15,13,41,12.00
2012,10,15,13,42,12.00
2012,10,15,13,43,12.00
2012,10,15,13,44,12.00
2012,10,15,13,45,12.00
2012,10,15,13,46,12.00
2012,10,15,13,47,12.00
2012,10,15,13,48,12.00
2012,10,15,13,49,12.00
2012,10,15,13,50,12.10
2012,10,15,13,51,12.10
2012,10,15,13,52,12.10
2012,10,15,13,53,12.10
2012,10,15,13,54,12.10
2012,10,15,13,55,12.20
2012,10,15,13,56,12.20
2012,10,15,13,57,12.20
2012,10,15,13,58,12.20
2012,10,15,13,59,12.10
2012,10,15,14,00,12.10
2012,10,15,14,01,12.10
2012,10,15,14,02,12.10
2012,10,15,14,03,12.10
2012,10,15,14,04,12.10
2012,10,15,14,05,12.10
2012,10,15,14,06,12.10
2012,10,15,14,07,12.10
2012,10,15,14,08,12.10
2012,10,15,14,09,12.10
2012,10,15,14,10,12.20
2012,10,15,14,11,12.20
2012,10,15,14,12,12.20
2012,10,15,14,13,12.20
2012,10,15,14,14,12.20
2012,10,15,14,15,12.20
2012,10,15,14,16,12.20
2012,10,15,14,17,12.20
2012,10,15,14,18,12.20
2012,10,15,14,19,12.20
2012,10,15,14,20,12.20
2012,10,15,14,21,12.20
2012,10,15,14,22,12.20
2012,10,15,14,23,12.20
2012,10,15,14,24,12.20
2012,10,15,14,25,12.20
2012,10,15,14,26,12.10
2012,10,15,14,27,12.10
2012,10,15,14,28,12.10
2012,10,15,14,29,12.10
2012,10,15,14,30,12.10
2012,10,15,14,31,12.10
2012,10,15,14,32,12.10
2012,10,15,14,33,12.10
2012,10,15,14,34,12.00
2012,10,15,14,35,12.00
2012,10,15,14,36,12.00
2012,10,15,14,37,12.00
2012,10,15,14,38,11.90
2012,10,15,14,39,11.90
2012,10,15,14,40,11.90
2012,10,15,14,41,11.90
2012,10,15,14,42,11.90
2012,10,15,14,43,11.80
2012,10,15,14,44,11.80
2012,10,15,14,45,11.80
2012,10,15,14,46,11.80
2012,10,15,14,47,11.80
2012,10,15,14,48,11.80
2012,10,15,14,49,11.80
2012,10,15,14,50,11.80
2012,10,15,14,51,11.80
2012,10,15,14,52,11.80
2012,10,15,14,53,11.80
2012,10,15,14,54,11.80
2012,10,15,14,55,11.80
2012,10,15,14,56,11.80
2012,10,15,14,57,11.80
2012,10,15,14,58,11.80
2012,10,15,14,59,11.80
2012,10,15,15,00,11.80
2012,10,15,15,01,11.80
2012,10,15,15,02,11.70
2012,10,15,15,03,11.70
2012,10,15,15,04,11.70
2012,10,15,15,05,11.70
2012,10,15,15,06,11.70
2012,10,15,15,07,11.70
2012,10,15,15,08,11.70
2012,10,15,15,09,11.70
2012,10,15,15,10,11.70
2012,10,15,15,11,11.70
2012,10,15,15,12,11.70
2012,10,15,15,13,11.70
2012,10,15,15,14,11.70
2012,10,15,15,15,11.70
2012,10,15,15,16,11.70
2012,10,15,15,17,11.70
2012,10,15,15,18,11.70
2012,10,15,15,19,11.70
2012,10,15,15,20,11.70
2012,10,15,15,21,11.70
2012,10,15,15,22,11.70
2012,10,15,15,23,11.70
2012,10,15,15,24,11.70
2012,10,15,15,25,11.70
2012,10,15,15,26,11.70
2012,10,15,15,27,11.80
2012,10,15,15,28,11.80
2012,10,15,15,29,11.70
2012,10,15,15,30,11.70
2012,10,15,15,31,11.70
2012,10,15,15,32,11.80
2012,10,15,15,33,11.80
2012,10,15,15,34,11.80
2012,10,15,15,35,11.70
2012,10,15,15,36,11.70
2012,10,15,15,37,11.70
2012,10,15,15,38,11.60
2012,10,15,15,39,11.60
2012,10,15,15,40,11.60
2012,10,15,15,41,11.60
2012,10,15,15,42,11.60
2012,10,15,15,43,11.60
2012,10,15,15,44,11.60
2012,10,15,15,45,11.60
2012,10,15,15,46,11.60
2012,10,15,15,47,11.60
2012,10,15,15,48,11.60
2012,10,15,15,49,11.60
2012,10,15,15,50,11.60
2012,10,15,15,51,11.60
2012,10,15,15,52,11.60
2012,10,15,15,53,11.60
2012,10,15,15,54,11.60
2012,10,15,15,55,11.60
2012,10,15,15,56,11.60
2012,10,15,15,57,11.60
2012,10,15,15,58,11.60
2012,10,15,15,59,11.60
2012,10,15,16,00,11.60
2012,10,15,16,01,11.60
2012,10,15,16,02,11.60
2012,10,15,16,03,11.60
2012,10,15,16,04,11.60
2012,10,15,16,05,11.60
2012,10,15,16,06,11.60
2012,10,15,16,07,11.60
2012,10,15,16,08,11.60
2012,10,15,16,09,11.60
2012,10,15,16,10,11.60
2012,10,15,16,11,11.60
2012,10,15,16,12,11.60
2012,10,15,16,13,11.60
2012,10,15,16,14,11.60
2012,10,15,16,15,11.60
2012,10,15,16,16,11.60
2012,10,15,16,17,11.60
2012,10,15,16,18,11.60
2012,10,15,16,19,11.60
2012,10,15,16,20,11.60
2012,10,15,16,21,11.60
2012,10,15,16,22,11.60
2012,10,15,16,23,11.60
2012,10,15,16,24,11.50
2012,10,15,16,25,11.40
2012,10,15,16,26,11.40
2012,10,15,16,27,11.40
2012,10,15,16,28,11.40
2012,10,15,16,29,11.40
2012,10,15,16,30,11.40
2012,10,15,16,31,11.40
2012,10,15,16,32,11.40
2012,10,15,16,33,11.40
2012,10,15,16,34,11.40
2012,10,15,16,35,11.40
2012,10,15,16,36,11.40
2012,10,15,16,37,11.40
2012,10,15,16,38,11.40
2012,10,15,16,39,11.40
2012,10,15,16,40,11.40
2012,10,15,16,41,11.50
2012,10,15,16,42,11.60
2012,10,15,16,43,11.60
2012,10,15,16,44,11.70
2012,10,15,16,45,11.70
2012,10,15,16,46,11.80
2012,10,15,16,47,11.80
2012,10,15,16,48,11.80
2012,10,15,16,49,11.90
2012,10,15,16,50,11.90
2012,10,15,16,51,12.00
2012,10,15,16,52,12.00
2012,10,15,16,53,12.00
2012,10,15,16,54,12.00
2012,10,15,16,55,12.10
2012,10,15,16,56,12.10
2012,10,15,16,57,12.10
2012,10,15,16,58,12.10
2012,10,15,16,59,12.10
2012,10,15,17,00,12.10
2012,10,15,17,01,12.10
2012,10,15,17,02,12.10
2012,10,15,17,03,12.10
2012,10,15,17,04,12.10
2012,10,15,17,05,12.10
2012,10,15,17,06,12.20
2012,10,15,17,07,12.20
2012,10,15,17,08,12.20
2012,10,15,17,09,12.20
2012,10,15,17,10,12.20
2012,10,15,17,11,12.20
2012,10,15,17,12,12.20
2012,10,15,17,13,12.20
2012,10,15,17,14,12.20
2012,10,15,17,15,12.20
2012,10,15,17,16,12.20
2012,10,15,17,17,12.20
2012,10,15,17,18,12.20
2012,10,15,17,19,12.20
2012,10,15,17,20,12.20
2012,10,15,17,21,12.20
2012,10,15,17,22,12.20
2012,10,15,17,23,12.20
2012,10,15,17,24,12.10
2012,10,15,17,25,12.10
2012,10,15,17,26,12.10
2012,10,15,17,27,12.10
2012,10,15,17,28,12.10
2012,10,15,17,29,12.10
2012,10,15,17,30,12.10
2012,10,15,17,31,12.10